This demonstration page uses our WeatherBlox Daily Observations layout. Learn more.

Left ArrowRight Arrow

39.51506, -84.39828

Hourly Observations for June 26, 2018

Temp ( °F °C ) Dew Point ( °F °C ) Humidity (%) Winds ( mph kmh ) Pressure ( in mb ) Visibility ( mi km ) Precip ( " mm )
12:15 am 00:15 Clear 62 16.9 62 16.4 97 97 N N/A 30.09 1019 10 16 N/A
12:35 am 00:35 Clear 63 17.2 62 16.7 97 97 N N/A 30.09 1019 10 16 N/A
12:55 am 00:55 Clear 62 16.9 61 16.2 96 96 N N/A 30.09 1019 10 16 N/A
1:15 am 01:15 Clear 62 16.8 61 16.2 96 96 N 3 6 30.09 1019 10 16 N/A
1:35 am 01:35 Clear 63 17 62 16.4 96 96 N 3 6 30.09 1019 10 16 N/A
1:55 am 01:55 Clear 62 16.8 61 16.3 97 97 N N/A 30.09 1019 10 16 N/A
2:15 am 02:15 Cloudy 62 16.8 61 16.3 97 97 N N/A 30.09 1019 10 16 N/A
2:35 am 02:35 Cloudy 64 17.6 63 17.1 97 97 N 3 6 30.09 1019 10 16 N/A
2:55 am 02:55 Cloudy 64 18 63 17.2 95 95 N 5 7 30.06 1018 10 16 N/A
3:15 am 03:15 Cloudy 65 18.5 63 17.4 93 93 N 5 7 30.06 1018 10 16 N/A
3:35 am 03:35 Clear 65 18.3 63 17.3 94 94 N 3 6 30.06 1018 10 16 N/A
3:55 am 03:55 Cloudy 64 18 63 17.3 96 96 N 3 6 30.06 1018 10 16 N/A
4:15 am 04:15 Cloudy 65 18.5 64 17.6 95 95 N 5 7 30.06 1018 10 16 N/A
4:35 am 04:35 Cloudy 66 18.7 64 17.8 95 95 N 3 6 30.06 1018 10 16 N/A
4:55 am 04:55 Cloudy 66 18.9 64 17.9 94 94 N 5 7 30.06 1018 10 16 N/A
5:15 am 05:15 Partly Cloudy 65 18.4 64 17.5 95 95 N 3 6 30.06 1018 10 16 N/A
5:35 am 05:35 Clear 64 18 63 17.3 96 96 N 3 6 30.06 1018 10 16 N/A
5:55 am 05:55 Clear 64 17.9 63 17.4 97 97 N 3 6 30.06 1018 10 16 N/A
6:15 am 06:15 Sunny 64 17.9 63 17.3 96 96 N N/A 30.06 1018 10 16 N/A
6:35 am 06:35 Sunny 65 18.1 64 17.5 96 96 N 3 6 30.06 1018 10 16 N/A
6:55 am 06:55 Partly Cloudy 65 18.6 64 17.6 94 94 NNE 3 6 30.06 1018 10 16 N/A
7:15 am 07:15 Sunny 65 18.5 64 17.8 96 96 N 3 6 30.06 1018 10 16 N/A
7:35 am 07:35 Mostly Cloudy 68 20.2 65 18.2 88 88 N 3 6 30.06 1018 10 16 N/A
7:55 am 07:55 Partly Cloudy 69 20.4 65 18.2 87 87 NE 3 6 30.06 1018 10 16 N/A
8:15 am 08:15 Mostly Cloudy 71 21.5 65 18.4 83 83 E 3 6 30.06 1018 10 16 N/A
8:35 am 08:35 Cloudy 71 21.8 65 18.1 80 80 ESE 6 9 30.06 1018 10 16 N/A
8:55 am 08:55 Cloudy 72 22 65 18.4 80 80 ESE 8 13 30.06 1018 10 16 N/A
9:15 am 09:15 Cloudy 72 22.2 65 18.3 79 79 SE 7 11 30.06 1018 10 16 N/A
9:35 am 09:35 Partly Cloudy 74 23.4 67 19.3 78 78 E 9 15 30.03 1017 10 16 N/A
9:55 am 09:55 Mostly Cloudy 75 23.7 67 19.3 76 76 E 6 9 30.03 1017 10 16 N/A
10:15 am 10:15 Mostly Cloudy 75 24.1 68 19.9 77 77 E 5 7 30.03 1017 10 16 N/A
10:35 am 10:35 Mostly Cloudy 77 24.9 68 20.1 75 75 ENE 3 6 30.03 1017 10 16 N/A
10:55 am 10:55 Mostly Cloudy 78 25.6 69 20.5 73 73 SE 5 7 30.03 1017 10 16 N/A
11:15 am 11:15 Cloudy 77 25 69 20.4 76 76 SE 6 9 30.03 1017 10 16 N/A
11:35 am 11:35 Cloudy 78 25.4 69 20.7 75 75 SE 7 11 30.03 1017 10 16 N/A
11:55 am 11:55 Cloudy 78 25.4 69 20.8 76 76 ESE 6 9 30.06 1018 10 16 N/A
12:15 pm 12:15 Cloudy 80 26.5 70 21.2 73 73 SE 5 7 30.03 1017 10 16 N/A
12:35 pm 12:35 Cloudy 79 26.3 71 21.4 75 75 SSE 7 11 30.03 1017 10 16 N/A
12:55 pm 12:55 Cloudy 79 26.1 71 21.6 76 76 SW 7 11 30.03 1017 10 16 N/A
1:15 pm 13:15 Cloudy 78 25.5 71 21.5 79 79 SW 6 9 30.03 1017 10 16 N/A
1:35 pm 13:35 Cloudy with Heavy Rain 70 21.3 66 18.7 85 85 NW 15 24 30.06 1018 4 6 0.06 1.52
1:55 pm 13:55 Cloudy with Strong Thunderstorms 68 20 65 18.5 91 91 N 3 6 30.03 1017 2 3 0.18 4.57
2:15 pm 14:15 Cloudy with Thunderstorms 68 19.9 66 19 95 95 NNE 5 7 30.06 1018 5 8 0.03 0.76
2:35 pm 14:35 Cloudy with Light Rain 68 19.8 66 19.1 96 96 ENE 7 11 30.03 1017 10 16 0.05 1.27
2:55 pm 14:55 Mostly Cloudy with Light Rain 68 20 67 19.4 96 96 N N/A 30.03 1017 4 6 0.07 1.78
3:15 pm 15:15 Cloudy with Mist and Fog 68 20 66 19 94 94 N N/A 30.03 1017 4 6 N/A
3:35 pm 15:35 Cloudy 68 20 66 19 94 94 N N/A 30.03 1017 7 11 0.01 0.25
3:55 pm 15:55 Cloudy with Mist and Fog 68 20 67 19.4 96 96 SSW 7 11 30.06 1018 4 6 0.02 0.51
4:15 pm 16:15 Cloudy with Thunderstorms 68 20.2 67 19.7 97 97 SSE 7 11 30.03 1017 7 11 0.03 0.76
4:35 pm 16:35 Cloudy with Thunderstorms 68 20.2 67 19.5 96 96 E 8 13 30.00 1016 4 6 0.06 1.52
4:55 pm 16:55 Cloudy with Thunderstorms 68 20 67 19.3 96 96 E 9 15 29.97 1015 4 6 0.12 3.05
5:15 pm 17:15 Cloudy with Light Rain 68 20.1 66 19 93 93 ESE 8 13 29.94 1014 10 16 0.03 0.76
5:35 pm 17:35 Sunny 69 20.4 66 19 92 92 ESE 3 6 29.91 1013 10 16 0.03 0.76
5:55 pm 17:55 Sunny 69 20.6 67 19.4 93 93 SW 5 7 29.94 1014 10 16 0.03 0.76
6:15 pm 18:15 Sunny 69 20.8 67 19.5 92 92 S 6 9 29.91 1013 10 16 N/A
6:35 pm 18:35 Sunny 70 21.1 68 19.8 92 92 S 6 9 29.91 1013 10 16 N/A
6:55 pm 18:55 Sunny 71 21.4 68 19.8 91 91 S 5 7 29.91 1013 10 16 N/A
7:15 pm 19:15 Sunny 71 21.4 68 19.9 91 91 SSW 5 7 29.91 1013 10 16 N/A
7:35 pm 19:35 Sunny 70 21.3 68 19.8 91 91 SW 5 7 29.91 1013 10 16 N/A
7:55 pm 19:55 Sunny 71 21.5 68 19.9 91 91 SSW 5 7 29.91 1013 10 16 N/A
8:15 pm 20:15 Sunny 70 21.3 67 19.6 90 90 SSW 8 13 29.94 1014 10 16 N/A
8:35 pm 20:35 Sunny 70 21.1 67 19.4 90 90 SSW 10 17 29.91 1013 10 16 N/A
8:55 pm 20:55 Partly Cloudy 69 20.6 66 19.1 91 91 S 13 20 29.94 1014 10 16 N/A
9:15 pm 21:15 Cloudy 69 20.5 66 19.1 92 92 S 12 19 29.94 1014 10 16 N/A
9:35 pm 21:35 Cloudy 69 20.6 67 19.2 92 92 S 8 13 29.94 1014 10 16 N/A
9:55 pm 21:55 Cloudy 69 20.6 67 19.3 92 92 S 7 11 29.94 1014 10 16 N/A
10:15 pm 22:15 Cloudy 69 20.7 67 19.4 92 92 SSE 7 11 29.94 1014 10 16 N/A
10:35 pm 22:35 Mostly Cloudy 69 20.6 67 19.4 93 93 S 7 11 29.94 1014 10 16 N/A
10:55 pm 22:55 Mostly Cloudy 69 20.4 67 19.4 94 94 S 6 9 29.94 1014 10 16 N/A
11:15 pm 23:15 Mostly Cloudy 69 20.4 67 19.4 94 94 S 6 9 29.91 1013 10 16 N/A
11:35 pm 23:35 Partly Cloudy 69 20.3 67 19.5 95 95 S 7 11 29.91 1013 10 16 N/A
11:55 pm 23:55 Partly Cloudy 69 20.3 67 19.5 95 95 S 7 11 29.91 1013 10 16 N/A

Powered by AerisWeather